GW3385 Weather Reports


time (UTC)temp
C
wind
direction
speed
KPH
gust
KPH
rain 1hr
cm
rain 24hr
cm
rain mn
cm
humidity
%
barometer
mb
20260504050556 15 250 3.2 11.3 0.00 0.00 0.00 81 1013.6
20260504045555 14 275 6.4 16.1 0.00 0.00 0.00 81 1013.6
20260504045055 15 297 4.8 16.1 0.00 0.00 0.00 81 1013.6
20260504044603 14 279 4.8 14.5 0.00 0.00 0.00 81 1013.6
20260504044057 14 296 4.8 16.1 0.00 0.00 0.00 81 1013.5
20260504043557 15 273 8.0 16.1 0.00 0.00 0.00 80 1013.5
20260504043055 15 271 4.8 11.3 0.00 0.00 0.00 81 1013.6
20260504042557 15 258 4.8 11.3 0.00 0.00 0.00 81 1013.6
20260504042100 15 0 3.2 11.3 0.00 0.00 0.00 81 1013.6
20260504041556 15 278 3.2 11.3 0.00 0.00 0.00 81 1013.5
20260504041056 15 267 4.8 12.9 0.00 0.00 0.00 80 1013.6
20260504040556 15 216 6.4 12.9 0.00 0.00 0.00 81 1013.4
20260504040105 15 183 3.2 16.1 0.00 0.00 0.00 80 1013.4
20260504035556 15 225 6.4 16.1 0.00 0.00 0.00 80 1013.3
20260504035056 15 200 8.0 14.5 0.00 0.00 0.00 80 1013.2
20260504034600 15 253 4.8 16.1 0.00 0.00 0.00 81 1013.2
20260504034056 15 191 4.8 16.1 0.00 0.00 0.00 81 1013.1
20260504033558 15 175 6.4 16.1 0.00 0.00 0.00 80 1013.2
20260504033126 15 211 3.2 11.3 0.00 0.00 0.00 81 1013.0
20260504032557 15 258 6.4 12.9 0.00 0.00 0.00 80 1012.9
20260504032100 15 171 3.2 16.1 0.00 0.00 0.00 81 1012.9
20260504031558 15 179 3.2 16.1 0.00 0.00 0.00 81 1012.8
20260504031057 14 277 6.4 17.7 0.00 0.00 0.00 81 1012.7
20260504030555 14 246 4.8 17.7 0.00 0.00 0.00 81 1012.8
20260504030101 14 287 8.0 16.1 0.00 0.00 0.00 80 1012.8
20260504025556 15 274 6.4 16.1 0.00 0.00 0.00 80 1012.7
20260504025056 15 162 6.4 16.1 0.00 0.00 0.00 79 1012.7
20260504024600 15 162 6.4 17.7 0.00 0.00 0.00 79 1013.0
20260504024102 15 255 4.8 17.7 0.00 0.00 0.00 79 1012.7
20260504023556 15 181 4.8 19.3 0.00 0.00 0.00 79 1012.7
20260504023104 15 169 6.4 24.1 0.00 0.00 0.00 78 1012.7
20260504022558 15 198 9.7 24.1 0.00 0.00 0.00 78 1012.7
20260504022055 15 308 9.7 20.9 0.00 0.00 0.00 77 1012.5
20260504021559 15 242 4.8 22.5 0.00 0.00 0.00 77 1012.5
20260504021056 15 236 8.0 22.5 0.00 0.00 0.00 76 1012.4
20260504020556 15 171 8.0 19.3 0.00 0.00 0.00 76 1012.3
20260504020101 15 206 6.4 17.7 0.00 0.00 0.00 77 1012.4
20260504015556 15 148 6.4 19.3 0.00 0.00 0.00 77 1012.2
20260504015059 15 247 6.4 19.3 0.00 0.00 0.00 76 1012.3
20260504014555 15 261 8.0 20.9 0.00 0.00 0.00 76 1012.2
20260504014055 15 288 12.9 20.9 0.00 0.00 0.00 75 1012.1
20260504013556 15 240 12.9 20.9 0.00 0.00 0.00 74 1012.1
20260504013111 15 265 8.0 22.5 0.00 0.00 0.00 74 1012.1
20260504012557 15 170 11.3 22.5 0.00 0.00 0.00 74 1012.3
20260504012055 15 268 12.9 22.5 0.00 0.00 0.00 74 1012.4
20260504011559 15 239 8.0 20.9 0.00 0.00 0.00 73 1012.2
20260504011056 15 223 8.0 20.9 0.00 0.00 0.00 72 1012.0
20260504010555 16 224 8.0 20.9 0.00 0.00 0.00 71 1012.2
20260504010112 16 169 6.4 19.3 0.00 0.00 0.00 70 1012.0
20260504005559 15 236 4.8 19.3 0.00 0.00 0.00 70 1012.1
20260504005056 15 213 9.7 19.3 0.00 0.00 0.00 70 1012.1
20260504004624 16 225 9.7 19.3 0.00 0.00 0.00 69 1012.0
20260504004055 16 242 8.0 19.3 0.00 0.00 0.00 69 1011.9
20260504003559 16 237 3.2 20.9 0.00 0.00 0.00 69 1011.8
20260504003055 16 286 6.4 20.9 0.00 0.00 0.00 68 1011.9
20260504002556 16 253 8.0 17.7 0.00 0.00 0.00 67 1011.9
20260504002056 16 265 8.0 22.5 0.00 0.00 0.00 69 1012.0
20260504001607 16 243 8.0 22.5 0.00 0.00 0.00 70 1012.0
20260504001056 16 262 6.4 17.7 0.00 0.00 0.00 71 1011.9
20260504000556 16 258 8.0 19.3 0.00 0.00 0.00 70 1011.7
20260504000055 16 238 8.0 19.3 0.00 0.00 0.00 71 1011.8
20260503235554 16 261 9.7 19.3 0.00 0.00 0.00 72 1011.7
20260503235052 16 187 8.0 20.9 0.00 0.00 0.00 72 1011.6
20260503234558 16 252 9.7 20.9 0.00 0.00 0.00 74 1011.7
20260503234052 16 263 8.0 19.3 0.00 0.00 0.00 75 1011.7
20260503233552 16 227 9.7 25.7 0.00 0.00 0.00 74 1011.6
20260503233059 16 227 9.7 25.7 0.00 0.00 0.00 74 1011.6
20260503232551 16 294 12.9 22.5 0.00 0.00 0.00 72 1011.9
20260503232051 16 261 6.4 25.7 0.00 0.00 0.00 71 1012.1
20260503231557 16 321 11.3 25.7 0.00 0.00 0.00 68 1012.0
20260503231051 16 261 8.0 19.3 0.00 0.00 0.00 69 1012.0
20260503230552 16 246 11.3 19.3 0.00 0.00 0.00 68 1012.1
20260503225554 16 182 8.0 22.5 0.00 0.00 0.00 69 1012.1
20260503225051 16 263 11.3 22.5 0.00 0.00 0.00 68 1012.1
20260503224555 16 171 4.8 17.7 0.00 0.00 0.00 69 1012.3
20260503224052 16 301 9.7 17.7 0.00 0.00 0.00 69 1012.4
20260503223552 16 204 9.7 19.3 0.00 0.00 0.00 69 1012.3
20260503223100 16 293 9.7 19.3 0.00 0.00 0.00 70 1012.5
20260503222552 16 128 9.7 22.5 0.00 0.00 0.00 71 1012.4
20260503222051 16 225 6.4 22.5 0.00 0.00 0.00 71 1012.5
20260503221557 16 258 8.0 20.9 0.00 0.00 0.00 70 1012.6
20260503221054 16 205 11.3 20.9 0.00 0.00 0.00 70 1012.6
20260503220552 17 265 8.0 19.3 0.00 0.00 0.00 69 1012.6
20260503220054 17 208 9.7 19.3 0.00 0.00 0.00 69 1012.8
20260503215552 17 173 8.0 19.3 0.00 0.00 0.00 69 1012.7
20260503215051 16 251 8.0 22.5 0.00 0.00 0.00 70 1012.9
20260503214553 16 250 8.0 22.5 0.00 0.00 0.00 69 1012.8
20260503214058 16 276 9.7 20.9 0.00 0.00 0.00 70 1012.8
20260503213554 16 234 11.3 20.9 0.00 0.00 0.00 69 1012.9
20260503213111 16 217 8.0 19.3 0.00 0.00 0.00 69 1012.9
20260503212555 16 258 6.4 22.5 0.00 0.00 0.00 69 1012.8
20260503212051 16 277 9.7 22.5 0.00 0.00 0.00 68 1012.7
20260503211558 16 299 11.3 24.1 0.00 0.00 0.00 68 1012.9
20260503211051 16 259 9.7 24.1 0.00 0.00 0.00 69 1012.9
20260503210555 16 168 8.0 24.1 0.00 0.00 0.00 70 1013.0
20260503210100 16 310 6.4 24.1 0.00 0.00 0.00 70 1013.0
20260503205552 16 254 14.5 24.1 0.00 0.00 0.00 69 1013.0
20260503205056 16 269 11.3 22.5 0.00 0.00 0.00 70 1012.9
20260503204608 16 248 11.3 22.5 0.00 0.00 0.00 70 1012.9
20260503204056 16 234 12.9 20.9 0.00 0.00 0.00 71 1012.9
20260503203558 16 239 8.0 20.9 0.00 0.00 0.00 70 1012.9
20260503203105 16 240 12.9 19.3 0.00 0.00 0.00 68 1012.8
20260503202556 16 167 11.3 19.3 0.00 0.00 0.00 67 1012.9
20260503202056 16 278 3.2 16.1 0.00 0.00 0.00 69 1012.9
20260503201603 16 246 9.7 16.1 0.00 0.00 0.00 68 1013.0
20260503201056 16 297 6.4 16.1 0.00 0.00 0.00 67 1013.0
20260503200556 16 229 6.4 19.3 0.00 0.00 0.00 68 1013.1
20260503195555 16 301 8.0 19.3 0.00 0.00 0.00 68 1013.2
20260503195057 16 226 6.4 19.3 0.00 0.00 0.00 68 1013.2
20260503194601 16 257 8.0 19.3 0.00 0.00 0.00 69 1013.1
20260503194056 16 265 6.4 17.7 0.00 0.00 0.00 68 1013.2
20260503193556 16 229 8.0 17.7 0.00 0.00 0.00 69 1013.2
20260503193102 16 186 8.0 17.7 0.00 0.00 0.00 69 1013.2
20260503192555 16 206 6.4 17.7 0.00 0.00 0.00 69 1013.2
20260503192056 16 252 8.0 17.7 0.00 0.00 0.00 68 1013.2
20260503191635 16 238 9.7 17.7 0.00 0.00 0.00 68 1013.2
20260503191056 16 190 4.8 19.3 0.00 0.00 0.00 69 1013.3
20260503190556 17 233 3.2 19.3 0.00 0.00 0.00 67 1013.3
20260503190106 17 271 4.8 19.3 0.00 0.00 0.00 68 1013.3
20260503185559 17 169 3.2 12.9 0.00 0.00 0.00 68 1013.4
20260503185056 17 189 3.2 12.9 0.00 0.00 0.00 69 1013.3
20260503184601 17 115 4.8 11.3 0.00 0.00 0.00 69 1013.3
20260503184103 17 275 1.6 12.9 0.00 0.00 0.00 68 1013.4
20260503183557 16 182 4.8 12.9 0.00 0.00 0.00 69 1013.3
20260503183114 16 254 1.6 11.3 0.00 0.00 0.00 70 1013.4
20260503182555 16 0 1.6 11.3 0.00 0.00 0.00 71 1013.4
20260503182056 16 246 4.8 16.1 0.00 0.00 0.00 72 1013.4
20260503181605 16 205 4.8 16.1 0.00 0.00 0.00 72 1013.5
20260503181056 16 259 6.4 16.1 0.00 0.00 0.00 72 1013.5
20260503180559 16 196 4.8 14.5 0.00 0.00 0.00 74 1013.5
20260503180104 15 76 1.6 16.1 0.00 0.00 0.00 75 1013.6
20260503175556 15 242 6.4 17.7 0.00 0.00 0.00 75 1013.7
20260503175056 15 259 6.4 17.7 0.00 0.00 0.00 75 1013.8
20260503174556 15 227 8.0 17.7 0.00 0.00 0.00 75 1013.7
20260503174056 15 300 6.4 19.3 0.00 0.00 0.00 77 1013.7
20260503173556 15 301 4.8 19.3 0.00 0.00 0.00 78 1013.7
20260503173115 15 254 9.7 17.7 0.00 0.00 0.00 77 1013.7
20260503172559 15 291 9.7 16.1 0.00 0.00 0.00 78 1013.7
20260503172055 15 265 6.4 14.5 0.00 0.00 0.00 78 1013.6
20260503171555 15 277 4.8 14.5 0.00 0.00 0.00 78 1013.6
20260503171057 15 182 6.4 17.7 0.00 0.00 0.00 77 1013.5
20260503170556 15 196 9.7 17.7 0.00 0.00 0.00 78 1013.5
20260503150558 14 191 3.2 11.3 0.00 0.00 0.00 83 1012.7
20260503131054 14 0 0.0 4.8 0.00 0.00 0.00 84 1011.5
20260503130554 14 0 1.6 4.8 0.00 0.00 0.00 84 1011.5
20260503120119 15 179 0.0 9.7 0.00 0.00 0.00 79 1011.3
20260503110556 14 216 1.6 8.0 0.00 0.00 0.00 81 1011.7
20260503100104 15 0 0.0 4.8 0.00 0.00 0.00 84 1011.8
20260503081557 14 184 1.6 9.7 0.00 0.00 0.00 87 1012.3
20260503081056 14 217 4.8 11.3 0.00 0.00 0.00 88 1012.3
20260503080557 14 156 4.8 11.3 0.00 0.00 0.00 88 1012.3
20260503072557 14 201 4.8 14.5 0.00 0.00 0.00 90 1012.0
20260503072056 14 155 4.8 9.7 0.00 0.00 0.00 90 1011.9
20260503071600 14 254 3.2 9.7 0.00 0.00 0.00 90 1011.9
20260503071056 14 260 3.2 9.7 0.00 0.00 0.00 90 1011.8
20260503070556 14 201 1.6 8.0 0.00 0.00 0.00 91 1011.8
20260503070110 14 299 3.2 8.0 0.00 0.00 0.00 90 1011.8
20260503055056 14 172 6.4 14.5 0.00 0.00 0.00 90 1011.9
20260503054604 14 149 4.8 16.1 0.00 0.00 0.00 91 1011.8
20260503054056 14 234 4.8 16.1 0.00 0.00 0.00 91 1011.9
20260503053557 14 192 4.8 12.9 0.00 0.00 0.00 91 1012.0